Вернуться в каталог

COSMOS 1823 DEB

АктивенLEO
NORAD 18727·DEBRIS·🇷🇺 Russia

Запущен Feb 20, 1987 с Plesetsk Cosmodrome

Loading…

Ближайшие Пролёты (ближайшие 24 часа)

TLE

СвежийSource: Space-Track

Эпоха: Sep 14, 2026, 09:55 UTC

1 18727U 87020E   26257.41362589  .00000027  00000-0  24603-3 0  9999
2 18727  73.3562 245.8371 0087543 162.2208 271.5624 12.65208653788111

Отслеживайте COSMOS 1823 DEB в реальном времени с AllMySat

Download on the App Store